Location: Black Creek
(40.9000°S, 175.5500°E)
Time: 04:29:27
(UTC+00:00)

Cosmos 1844 Rocket - Pass Details

Date: 04 August 2024
Orbit: 823 x 845 km, 71.0° (Epoch: 07 September)

Event Time Altitude Azimuth Distance (km) Brightness Sun altitude
Exits shadow 16:35:57 40° 160° (SSE) 1,236 3.6 -31.3°
Drops below altitude 10° 16:39:31 10° 157° (SSE) 2,489 5.4 -30.6°
Sets 16:41:59 0° 156° (SSE) 3,427 6.2 -30.1°
